Hourly Data Report for October 01, 2015

All times are specified in Local Standard Time (LST). Add 1 hour to adjust for Daylight Saving Time where and when it is observed.

MONCTON INTL A
NEW BRUNSWICK

46°06'44.000" N
64°40'43.000" W
70.70 m
8103201
71705
YQM

Download Data

Hourly Data (October 2015)
Hourly Data Report for October 1, 2015
Temp Definition
°C
Dew Point Temp Definition
°C
Rel Hum Definition
%
Wind Dir Definition
10's deg

Wind Spd Definition
km/h
Visibility Definition
km
Stn Press Definition
kPa
Hmdx Definition


Wind Chill Definition


Weather Definition


TIME
00:00 Legend Double Dagger 18.5 18.5 100 23 17 2.4 99.88     Heavy Rain,Fog
01:00 Legend Double Dagger 14.0 13.9 99 31 22 6.4 99.99     Rain,Fog
02:00 Legend Double Dagger 12.6 12.3 98 34 26 4.8 100.10     Rain,Fog
03:00 Legend Double Dagger 11.4 11.0 97 35 36 2.4 100.19     Heavy Rain,Fog
04:00 Legend Double Dagger 11.3 10.9 97 36 41 3.2 100.32     Rain,Fog
05:00 Legend Double Dagger 11.5 10.9 96 36 43 3.2 100.46     Rain,Fog
06:00 Legend Double Dagger 11.7 11.1 96 35 39 4.0 100.66     Rain,Fog
07:00 Legend Double Dagger 11.6 11.1 97 36 30 4.0 100.72     Rain,Fog
08:00 Legend Double Dagger 11.0 10.6 97 35 43 2.4 100.87     Rain,Drizzle,Fog
09:00 Legend Double Dagger 10.6 10.2 97 36 27 3.2 100.98     Drizzle,Fog
10:00 Legend Double Dagger 10.7 10.3 97 35 28 3.2 101.03     Drizzle,Fog
11:00 Legend Double Dagger 10.7 10.1 96 36 25 4.8 101.13     Drizzle,Fog
12:00 Legend Double Dagger 10.3 9.7 96 36 24 6.4 101.20     Drizzle,Fog
13:00 Legend Double Dagger 10.6 9.0 90 1 24 16.1 101.24     LegendNANA
14:00 Legend Double Dagger 10.4 8.2 86 1 26 24.1 101.30     Cloudy
15:00 Legend Double Dagger 10.1 7.5 84 36 24 24.1 101.33     LegendNANA
16:00 Legend Double Dagger 10.2 7.3 82 36 28 24.1 101.43     LegendNANA
17:00 Legend Double Dagger 10.0 7.1 82 1 22 24.1 101.50     Mostly Cloudy
18:00 Legend Double Dagger 9.9 6.5 79 2 25 24.1 101.54     LegendNANA
19:00 Legend Double Dagger 9.9 5.7 75 1 33 24.1 101.60     LegendNANA
20:00 Legend Double Dagger 10.0 5.8 75 2 27 24.1 101.66     Cloudy
21:00 Legend Double Dagger 10.0 5.8 75 2 25 24.1 101.64     LegendNANA
22:00 Legend Double Dagger 9.9 5.3 73 3 33 24.1 101.62     LegendNANA
23:00 Legend Double Dagger 9.3 5.1 75 3 26 24.1 101.61     Mostly Cloudy

Notes on Data Quality.

Legend

  • E = Estimated
  • M = Missing
  • NA = Not Available
  • ‡ = Partner data that is not subject to review by the National Climate Archives
Date modified: